THORAD AGENA D DEB, 4652

Orbit data source: Space-Track

THORAD AGENA D DEB, 4652 is space debris in SSO originally from a launch on Wed, 08 Apr 1970 UTC launched from the Air Force Western Test Range (AFWTR). Debris objects in space refer to the collection of defunct objects orbiting the Earth. Examples of debris include non-operational satellites, rocket bodies, and fragments generated from explosions, collisions, or faulty payload assembly.

Loading next visibility...
Identifier
4652, 1970-025AL
Orbit
SSO
Last TLE update
20 hours ago
Origin
Manufacturer
Unknown
Mission
Spacecraft
Bus & Motor
Unknown
Mass
Unknown
Launch date (UTC)
1970-04-08 (55 years ago)
Launch vehicle
Unknown
Launch site
Air Force Western Test Range (AFWTR)
Object type
Payload
Rocket body
Debris
Shape & HBR
Unknown
Radar Cross Section
Small (<0.1 m²)

Expand to show TLE details & history

TLE from 20 hours ago
0 THORAD AGENA D DEB
1 04652U 70025AL  25181.32497896  .00000651  00000-0  56611-3 0  9990
2 04652  99.5844 319.5353 0032053  82.2773 308.0954 13.89799920768332
Epoch: 2025-06-30T07:47Z
TLE epoch observation values (Epoch: 2025-06-30T07:47:58.182Z)
Latitude
29.67104°
Longitude
-81.58501°
Altitude
918.562 km
Speed
7.403 km/s
True Right ascension
20h 56m 10s
True Declination
29° 31' 36"
Sunlit
Object was in daylight at epoch
Visualization orbit readout
Latitude
-59.17537°
Longitude
-58.87255°
Altitude
970.128 km
Speed
7.357 km/s
Apparent Right ascension
01h 29m 37s
Apparent Declination
-57° 00' 04"
Sunlit
Object is in full shadow
Visualization observer readout
Local Sidereal Time
15:43:19
Azimuth
139.527° SSE
Elevation
-62.472°
Doppler factor
1
Orbital elements
Apogee altitude
949.988 km
Perigee altitude
903.161 km
Semi-major axis
7,304.711 km
Eccentricity
0.00321
Inclination
99.5844°
RAAN
319.5353°
Arg. of periapsis
82.2773°
True anomaly
Unknown
Mean anomaly
308.0954°
Eccentric anomaly
Unknown
Mean motion
3.47647 °/min
Orbital period
103.55 mins
BSTAR
0.00056611
Loading maneuver chart data...
Loading SW <> Apogee altitude chart data...

THORAD AGENA D DEB Visibility forecast

Observer location: undefined°, undefined°

Span
Click to sort rows by Start time (UTC) header in descending order
Start Az.
Max El. time (UTC)
Max El. Az.
Max El.
End time (UTC)
End Az.
8 mins2025-07-01 07:59:55.195Z110.502° ESE2025-07-01 08:03:55.195Z59.112° ENE23.065°2025-07-01 08:07:55.195Z12.343° NNE
9 mins2025-07-01 09:41:55.195Z195.142° SSW2025-07-01 09:45:55.195Z270.662° WNW35.897°2025-07-01 09:50:55.195Z332.596° NNW
9 mins2025-07-01 22:15:55.195Z13.017° NNE2025-07-01 22:19:55.195Z280.873° WNW44.904°2025-07-01 22:24:55.195Z198.625° SSW
|